Simultaneous Nadir Overpasses (SNOs) Predictions

Prediction of SNOs between NOAA-19 and NPP Satellite Orbit:

Table of predicted SNOs for the next 14.0 days since TLE Epoch: 5/8/2015
Index Date (NOAA-19) Time (NOAA-19) Lat,Lon (NOAA-19) SZA (NOAA-19 ) Date (NPP) Time (NPP) Lat,Lon (NPP) SZA (NPP ) Distance(km) Time Diff (sec)
1 05/18/2015 21:09:33 -81.02, -9.46 115.11 05/18/2015 21:10:39 -81.02, -9.53 115.14 1.15 66
2 05/18/2015 22:00:35 81.02, 158.04 64.85 05/18/2015 22:01:24 81.02, 157.85 64.85 3.27 49
3 05/18/2015 22:51:35 -81.02, -34.71 115.16 05/18/2015 22:52:08 -81.01, -34.57 115.20 2.54 33
4 05/18/2015 23:42:38 81.02, 132.42 64.85 05/18/2015 23:42:54 81.02, 132.44 64.84 0.49 16
5 05/19/2015 00:33:37 -81.01, -59.96 115.21 05/19/2015 00:33:38 -81.01, -59.99 115.21 0.55 1
6 05/19/2015
